sat.trackr.live / text

‹ back to catalog

STARLINK-11699 [DTC]

NORAD 63762 · 2025-089M

PAYLOAD ACTIVE UNKNOWN

§ Identity

Operator
Country
US
Launch date
2025-04-29
Launch site
AFETR
Launch vehicle
Mass (kg)
RCS (m²)

Purposes: comms

External: N2YO · Heavens-Above · Gunter

§ Orbital elements

Epoch: 2026-05-25T03:11:00.107232Z

Period
91.67 min
Inclination
43.0020°
Eccentricity
0.0002239
Mean motion
15.70912319 rev/d
Perigee alt
354.8 km
Apogee alt
357.8 km
Semi-major
6,734.4 km
B*
1.1695e-3
RAAN
191.8568°
Arg perigee
261.4345°
Mean anomaly
98.6269°
Rev number
6,215

§ Raw data

STARLINK-11699 [DTC]1 63762U 25089M   26145.13264013  .00152878  00000+0  11695-2 0  99902 63762  43.0020 191.8568 0002239 261.4345  98.6269 15.70912319 62156

JSON: /api/v1/satellites/63762 · /tle

For live sub-satellite position, see the globe view (requires WebGL).

§ Visibility from observer

Set your observer location to see the next 7 days of passes ≥ 10°. The values pass through the URL so the page stays shareable.

No JS? Fill the form by hand. The geolocation button needs JavaScript.